sat.trackr.live / text

‹ back to catalog

STARLINK-11093 [DTC]

NORAD 59423 · 2024-065C

PAYLOAD ACTIVE UNKNOWN

§ Identity

Operator
Country
US
Launch date
2024-04-07
Launch site
AFWTR
Launch vehicle
Mass (kg)
RCS (m²)

Purposes: comms

External: N2YO · Heavens-Above · Gunter

§ Orbital elements

Epoch: 2026-09-21T06:53:47.563584Z

Period
91.74 min
Inclination
53.1587°
Eccentricity
0.0001144
Mean motion
15.69708998 rev/d
Perigee alt
359.0 km
Apogee alt
360.5 km
Semi-major
6,737.9 km
B*
-1.8121e-6
RAAN
209.6789°
Arg perigee
81.0930°
Mean anomaly
279.0218°
Rev number
14,224

§ Raw data

STARLINK-11093 [DTC]1 59423U 24065C   26264.28735606 -.00000808  00000+0 -18121-5 0  99922 59423  53.1587 209.6789 0001144  81.0930 279.0218 15.69708998142240

JSON: /api/v1/satellites/59423 · /tle

For live sub-satellite position, see the globe view (requires WebGL).

§ Visibility from observer

Set your observer location to see the next 7 days of passes ≥ 10°. The values pass through the URL so the page stays shareable.

No JS? Fill the form by hand. The geolocation button needs JavaScript.